Hourly Data Report for March 09, 2017

All times are specified in Local Standard Time (LST). Add 1 hour to adjust for Daylight Saving Time where and when it is observed.

TORONTO CITY
ONTARIO

43°40'00.000" N
79°24'00.000" W
112.50 m
6158355
71508
XTO

Download Data

Hourly Data (March 2017)
Hourly Data Report for March 9, 2017
TIME Temp Definition
°C
Dew Point Definition
°C
Rel Hum Definition
%
Wind Dir Definition
10's deg

Wind Spd Definition
km/h
Visibility Definition
km
Stn Press Definition
kPa
Hmdx Definition


Wind Chill Definition


Weather Definition


00:00 3.1 -8.7 42 LegendMM LegendMM   99.74     LegendNANA
01:00 2.4 -7.9 46 LegendMM LegendMM   99.87     LegendNANA
02:00 1.0 -9.5 45 LegendMM LegendMM   100.01     LegendNANA
03:00 -0.3 -7.5 58 LegendMM LegendMM   100.07     LegendNANA
04:00 -0.8 -7.1 62 LegendMM LegendMM   100.10     LegendNANA
05:00 -0.9 -6.9 64 LegendMM LegendMM   100.17     LegendNANA
06:00 -1.0 -7.1 63 LegendMM LegendMM   100.23     LegendNANA
07:00 -0.8 -7.8 59 LegendMM LegendMM   100.31     LegendNANA
08:00 -0.3 -7.9 56 LegendMM LegendMM   100.38     LegendNANA
09:00 -0.1 -9.8 48 LegendMM LegendMM   100.45     LegendNANA
10:00 0.8 -9.1 47 LegendMM LegendMM   100.47     LegendNANA
11:00 1.3 -9.0 46 LegendMM LegendMM   100.55     LegendNANA
12:00 3.2 -7.9 44 LegendMM LegendMM   100.52     LegendNANA
13:00 2.9 -8.9 41 LegendMM LegendMM   100.47     LegendNANA
14:00 3.3 -8.7 41 LegendMM LegendMM   100.41     LegendNANA
15:00 3.4 -8.6 41 LegendMM LegendMM   100.42     LegendNANA
16:00 3.3 -8.9 41 LegendMM LegendMM   100.40     LegendNANA
17:00 2.9 -8.5 43 LegendMM LegendMM   100.41     LegendNANA
18:00 2.1 -8.7 45 LegendMM LegendMM   100.41     LegendNANA
19:00 1.6 -8.6 47 LegendMM LegendMM   100.46     LegendNANA
20:00 1.1 -8.6 48 LegendMM LegendMM   100.53     LegendNANA
21:00 0.7 -9.8 45 LegendMM LegendMM   100.49     LegendNANA
22:00 0.6 -9.3 48 LegendMM LegendMM   100.45     LegendNANA
23:00 0.1 -8.7 51 LegendMM LegendMM   100.37     LegendNANA

Notes on Data Quality.

Legend

  • E = Estimated
  • M = Missing
  • NA = Not Available
Date modified: